This demonstration page uses our WeatherBlox Daily Observations layout. Learn more.

Left ArrowRight Arrow

38.83388, -104.82136

Hourly Observations for May 14, 2018

Temp ( °F °C ) Dew Point ( °F °C ) Humidity (%) Winds ( mph kmh ) Pressure ( in mb ) Visibility ( mi km ) Precip ( " mm )
12:37 am 00:37 Cloudy with Light Rain 52 11 46 8 82 82 N 8 13 29.61 1003 10 16 0.00 0.00
12:48 am 00:48 Cloudy with Thunderstorms 52 11 48 9 88 88 NNW 9 15 29.62 1003 6 10 0.00 0.00
12:58 am 00:58 Mostly Cloudy with Thunderstorms 51 10.5 48 8.9 90 90 NW 10 17 29.59 1002 4 6 0.07 1.78
1:03 am 01:03 Mostly Cloudy with Rain 50 10 48 9 94 94 NW 9 15 29.60 1002 5 8 0.00 0.00
1:23 am 01:23 Mostly Cloudy with Light Showers 52 11 48 9 88 88 NNW 12 19 29.58 1002 10 16 0.00 0.00
1:25 am 01:25 Mostly Cloudy 52 11 48 9 88 88 NNW 8 13 29.58 1002 10 16 0.00 0.00
1:55 am 01:55 Mostly Cloudy 52 11 48 9 88 88 NNW 9 15 29.58 1002 10 16 0.00 0.00
1:58 am 01:58 Mostly Cloudy 51 10.8 47 8.6 86 86 NNW 9 15 29.58 1002 10 16 0.01 0.25
2:07 am 02:07 Mostly Cloudy with Light Showers 52 11 48 9 88 88 N 8 13 29.58 1002 10 16 0.00 0.00
2:22 am 02:22 Cloudy with Light Showers 50 10 48 9 94 94 NNW 9 15 29.59 1002 7 11 0.00 0.00
2:27 am 02:27 Cloudy with Light Showers 50 10 48 9 94 94 N 10 17 29.60 1002 7 11 0.00 0.00
2:32 am 02:32 Cloudy with Light Showers 50 10 48 9 94 94 NW 9 15 29.59 1002 7 11 0.00 0.00
2:37 am 02:37 Cloudy with Light Showers 50 10 48 9 94 94 NW 10 17 29.59 1002 9 14 0.00 0.00
2:52 am 02:52 Cloudy 50 10 48 9 94 94 NW 13 20 29.59 1002 10 16 0.00 0.00
2:58 am 02:58 Cloudy 51 10.3 47 8.2 87 87 NW 10 17 29.61 1003 10 16 0.01 0.25
3:08 am 03:08 Cloudy 52 11 46 8 82 82 NW 9 15 29.58 1002 10 16 0.00 0.00
3:18 am 03:18 Cloudy 52 11 46 8 82 82 NW 13 20 29.57 1001 10 16 0.00 0.00
3:58 am 03:58 Mostly Cloudy 51 10.3 46 7.6 84 84 NNW 8 13 29.58 1002 10 16 0.00 0.00
4:43 am 04:43 Mostly Cloudy 48 9 45 7 87 87 NW 9 15 29.59 1002 10 16 0.00 0.00
4:53 am 04:53 Mostly Cloudy 48 9 45 7 87 87 NNW 12 19 29.59 1002 10 16 0.00 0.00
4:58 am 04:58 Mostly Cloudy 47 8.6 46 7.5 93 93 NNW 13 20 29.60 1002 10 16 0.00 0.00
5:13 am 05:13 Mostly Cloudy 48 9 45 7 87 87 NNW 10 17 29.63 1003 10 16 0.00 0.00
5:48 am 05:48 Cloudy 48 9 45 7 87 87 NNW 9 15 29.63 1003 10 16 0.00 0.00
5:58 am 05:58 Cloudy 48 8.9 45 7.2 89 89 NNW 9 15 29.65 1004 10 16 0.00 0.00
6:35 am 06:35 Cloudy with Light Rain 48 9 45 7 87 87 NNW 6 9 29.68 1005 10 16 0.00 0.00
6:40 am 06:40 Cloudy with Light Showers 48 9 45 7 87 87 NNW 6 9 29.68 1005 10 16 0.00 0.00
6:51 am 06:51 Cloudy 48 9 45 7 87 87 N 5 7 29.69 1005 10 16 0.00 0.00
6:58 am 06:58 Cloudy 48 8.8 45 7.2 90 90 NNW 6 9 29.69 1005 10 16 0.00 0.00
7:13 am 07:13 Cloudy 48 9 45 7 87 87 NW 6 9 29.70 1006 10 16 0.00 0.00
7:58 am 07:58 Cloudy 50 10.1 42 5.5 73 73 N 5 7 29.69 1005 10 16 0.00 0.00
8:33 am 08:33 Mostly Cloudy 50 10 41 5 71 71 WNW 3 6 29.72 1006 10 16 0.00 0.00
8:58 am 08:58 Cloudy 51 10.4 41 5.1 70 70 Calm 29.69 1005 10 16 0.00 0.00
9:48 am 09:48 Mostly Cloudy 55 13 45 7 67 67 SE 7 11 29.69 1005 10 16 0.00 0.00
9:58 am 09:58 Mostly Cloudy 56 13.6 44 6.8 64 64 E 7 11 29.67 1005 10 16 0.00 0.00
10:58 am 10:58 Mostly Cloudy 56 13.3 44 6.5 64 64 ESE 9 15 29.66 1005 10 16 0.00 0.00
11:58 am 11:58 Mostly Cloudy 56 13.2 43 6 62 62 SE 7 11 29.68 1005 10 16 0.00 0.00
12:58 pm 12:58 Mostly Cloudy 59 14.9 43 5.9 55 55 SSE 10 17 29.64 1004 10 16 0.00 0.00
1:58 pm 13:58 Partly Cloudy 62 16.4 41 4.9 47 47 SSE 14 22 29.61 1003 10 16 0.00 0.00
2:58 pm 14:58 Partly Cloudy 63 17.1 40 4.7 44 44 SSE 15 24 29.57 1001 10 16 0.00 0.00
3:58 pm 15:58 Mostly Sunny 65 18.4 39 4.1 39 39 SE 21 33 29.54 1000 10 16 0.00 0.00
4:58 pm 16:58 Sunny 65 18.6 36 2.2 34 34 SSE 18 30 29.54 1000 10 16 0.00 0.00
5:02 pm 17:02 Sunny 64 18 36 2 34 34 S 15 24 29.54 1000 10 16 0.00 0.00
5:58 pm 17:58 Sunny 64 17.5 38 3.2 39 39 SSE 12 19 29.56 1001 10 16 0.00 0.00
6:58 pm 18:58 Mostly Sunny 61 16.2 41 4.9 47 47 N 10 17 29.60 1002 10 16 0.00 0.00
7:58 pm 19:58 Mostly Cloudy 58 14.3 41 5.1 54 54 NNW 10 17 29.64 1004 10 16 0.00 0.00
8:58 pm 20:58 Mostly Cloudy 56 13.3 42 5.8 61 61 NNW 10 17 29.69 1005 10 16 0.00 0.00
9:58 pm 21:58 Mostly Cloudy 54 12.1 42 5.3 63 63 NNW 16 26 29.70 1006 10 16 0.00 0.00
10:58 pm 22:58 Mostly Cloudy 52 11.1 38 3.6 60 60 NW 16 26 29.73 1007 10 16 0.00 0.00
11:58 pm 23:58 Mostly Cloudy 51 10.6 37 2.9 59 59 N 13 20 29.76 1008 10 16 0.00 0.00

Powered by AerisWeather